CAPE
1411 1182 1307 1489 1641 1841 1912 1670 2530 1728 1903 2110 1530 2012 1950 2732 2684 2091 1454 1591 1730 1552 1052 902 783 940 954 1192 860 1000 1085 1382 1492 1490 1538 1515 1410 2015 2230 2171 2134 1998 2014 2000 1946 2012 1986 1964 1931 1929 1903 1851 1817 1840 1838 1740 1800 1759 1763 1563 1749 1789 1765 1847 1994 1857 2011 1996 1840 1914 1794 1724 1730 1887 1610 1667 1521 1554 1429 1336 930 1331 1498 1211 951
1362 1261 1681 2366 1644 1578 1747 1870 1779 1757 1793 2106 2109 2059 1950 1730 1983 1736 1669 1713 1909 1799 1464 1374 1278 1635 1340 933 826 858 1260 1431 1119 1014 1589 1438 1331 1728 2107 2182 2050 2109 2054 2043 2084 1966 1973 2021 2022 1917 1872 1908 1807 1800 1816 1609 1601 1704 1678 1733 1788 1820 1831 1949 1907 1883 1965 2037 1890 1800 1895 1804 1732 1850 1663 1486 1558 1477 1438 1364 1332 1143 1347 1285 1129
1147 1107 1429 2130 2138 1488 1622 1834 1774 1874 2200 2141 1850 1939 2147 2074 2232 2174 1909 1958 1921 1687 1478 1129 1025 1288 1313 1065 1235 1259 1045 899 1002 1025 1457 1962 1755 1748 1849 2101 2172 2102 2197 2004 1954 2009 1944 1958 1925 1916 1961 1935 1733 1761 1667 1794 1703 1740 1758 1784 1799 1882 1978 1896 1860 1990 2096 2074 1959 1784 1818 1826 1718 1668 1709 1546 1476 1458 1340 1339 1375 1322 1314 1342 1293
1248 1275 1280 1929 2101 1602 1754 1740 1807 1916 2044 2058 1782 2015 2335 2684 3054 3081 2808 2053 2188 2001 1408 1521 1441 1298 1449 1456 1634 1581 1620 1335 912 714 1211 1538 1854 2069 2110 1970 2320 2409 2333 2239 1958 2027 1848 1943 1855 1857 1845 2046 1944 1911 1801 1758 1893 1844 1946 1933 1954 2028 1988 1937 1933 2084 2034 2010 1962 1771 1847 1806 1656 1694 1630 1521 1328 1385 1349 1460 1522 1476 1451 1337 1269
2451 1908 2014 2117 2157 2224 2200 2148 2025 2354 2888 2653 2555 2622 2600 2274 2555 2416 1829 1914 1964 1941 1790 1826 1739 1492 1276 1450 1642 1854 1695 1317 1210 854 643 1031 1392 1558 2276 2532 2370 2558 2373 2382 2343 2081 2183 2021 2086 2000 1926 1992 1871 2073 1982 2022 1994 2046 2002 1990 1961 1991 1949 1907 2006 2070 2056 2007 1854 1921 1811 1696 1715 1746 1624 1483 1453 1391 1442 1507 1625 1593 1588 1584 1487
2668 3066 1926 1986 2284 2098 1832 2241 2517 2706 2897 2581 2253 2365 2404 2747 1945 1989 1716 1746 1895 1924 1720 1506 1430 1320 1199 1209 1408 1492 1543 1034 1164 796 1158 931 1062 1433 1526 1966 2736 2616 2513 2484 2290 2516 2301 2355 2242 2342 2248 2239 2134 2166 2145 2024 2094 2053 2019 2126 1984 2092 2019 2011 2030 2042 2086 1972 2012 1871 1967 1811 1696 1702 1603 1533 1575 1567 1540 1594 1685 1723 1692 1550 1543
2968 3389 2131 1728 1681 2004 2313 2495 2588 2687 2330 2991 2075 2240 2664 1903 2321 2437 1959 1740 1973 2057 1987 1508 1262 1175 1444 1372 1355 1411 1401 1441 917 790 1047 1225 1345 1061 1174 1338 1470 2026 2733 2614 2731 2364 2308 2304 2553 2462 2508 2383 2232 2317 2223 2180 2090 2105 2013 2047 2090 2116 2001 2070 2043 2112 2133 2077 1993 1940 1893 1936 1898 1845 1870 1773 1709 1760 1762 1704 1731 1741 1726 1726 1623
2510 3616 2411 1542 1532 2241 2530 2612 2944 2467 2490 3125 2489 1930 1825 2429 2216 2217 2180 1273 1477 1896 2148 2045 1561 1413 1295 1287 1404 1558 1686 1716 1610 953 1299 1136 961 1102 1033 1100 1035 1310 1482 2198 2565 2780 2608 2449 2212 2402 2600 2242 2526 2363 2372 2407 2330 2210 2304 2250 2223 2174 2163 2220 2248 2276 2286 2233 2246 2159 2059 2081 2092 2096 2114 2133 2019 1979 1965 1908 1783 1736 1744 1737 1742
3270 3342 2846 2126 1935 2102 2482 2918 3235 2687 2881 3220 2102 2274 2294 1989 2617 2184 2211 2528 1444 1502 1814 1859 1707 1551 1300 1211 1534 1644 1719 1634 1286 1300 995 932 953 504 719 462 464 919 1483 1329 2106 2546 2751 2746 2615 2244 1982 2472 2492 2534 2430 2349 2230 2311 2404 2457 2379 2390 2347 2309 2292 2332 2347 2398 2335 2386 2407 2400 2438 2393 2343 2350 2360 2232 2174 2098 1955 1871 1877 1892 1894
3280 3550 3662 2168 1950 2406 2732 3102 3053 3129 3270 2696 2763 2442 2586 2647 3030 2847 2476 2575 1618 1594 1494 1480 1342 1119 1227 1096 1567 1378 1093 1487 863 1377 976 666 699 788 615 785 1008 1077 792 978 861 2476 2354 3104 2915 2646 2774 2718 2699 2718 2732 2416 2526 2783 2888 2764 2604 2586 2548 2511 2454 2467 2586 2594 2588 2582 2641 2667 2654 2695 2655 2594 2561 2518 2471 2412 2309 2195 2109 2056 2060
3151 3566 3142 2196 2053 2460 2819 3322 2606 2685 3099 2845 2754 2841 2861 2826 2892 2100 2472 2242 2347 1724 1601 1394 1373 999 957 903 897 1358 818 799 823 789 866 474 586 621 530 708 512 537 694 968 925 1038 2576 3060 3055 2838 2691 3123 2993 2993 2789 2933 2935 2880 2771 2740 2751 2816 2872 2717 2681 2757 2731 2853 2916 2909 2918 2969 2992 2987 2986 2950 2861 2819 2784 2723 2664 2568 2526 2447 2368
3520 3697 3926 2907 2348 2695 3008 2925 3226 3367 3220 2648 2674 3260 3900 3000 2527 2674 2235 2177 2190 2334 1776 1626 1207 1104 862 690 1002 1139 1135 733 890 519 441 545 736 824 514 503 837 705 606 711 845 1236 1371 1653 1618 2254 3364 2890 3181 3158 3189 3148 2906 2650 2545 2681 2965 3024 2980 3062 3047 3008 3049 3150 3262 3295 3275 3309 3390 3365 3325 3265 3212 3144 3063 3013 2952 2890 2859 2770 2699
3981 3734 3293 3325 3084 3156 3679 3319 2942 3491 3524 3009 3009 2582 2868 2518 2258 2638 2419 2216 1875 1556 910 1452 1286 1050 1048 756 814 735 626 844 638 472 440 356 529 492 452 394 528 587 689 615 693 806 756 1542 1992 1591 2267 4304 3368 3753 3305 3182 3332 3431 3417 3426 3427 3194 3260 3198 3203 3336 3500 3483 3537 3742 3802 3805 3720 3713 3673 3636 3564 3493 3397 3307 3208 3151 3092 2995 2881
3441 4249 3249 2995 3603 3156 3320 3693 3712 3606 3560 2978 2928 2914 2950 3691 2317 1951 1950 2734 2788 1870 1133 1345 1366 1023 811 714 650 649 737 574 584 416 726 483 276 328 547 475 617 606 535 517 352 380 712 1206 1921 2109 1928 2320 2897 4207 3734 3493 3901 3497 3595 3632 3262 3169 3347 3277 3490 3466 3530 3529 3547 3687 3831 3858 3844 3848 3813 3794 3758 3748 3696 3631 3541 3420 3320 3213 3060
3444 3470 3772 3689 3528 3595 3370 3357 3677 2734 3301 3478 3182 3448 3615 2501 3312 3410 2328 2026 2595 1608 1777 1468 1075 796 738 810 668 732 916 878 496 516 510 407 592 465 424 422 378 432 675 1107 962 1188 1039 1546 1403 2012 2331 2339 2428 2398 3620 2779 3489 4251 3123 3543 3729 3566 3434 3637 3739 3798 3857 3964 3997 4066 4149 4189 4252 4222 4168 4001 3885 3944 3925 3682 3543 3515 3486 3446 3266
3150 3060 2968 3669 3630 3370 3162 3175 3085 4542 4648 3726 3459 3111 2746 2516 2778 2512 2390 1638 1651 1592 1453 1222 1439 934 996 747 556 920 960 742 821 377 347 354 647 186 290 324 739 712 832 1090 763 890 976 1113 1640 1598 2412 2622 2180 2292 2045 2770 4462 4354 4146 3751 2994 2997 3298 3464 3587 3554 3726 3996 4103 4133 4248 4248 4182 4125 4161 4231 4250 4198 3913 3796 3687 3563 3466 3379 3308
2606 2985 2800 3285 3749 3820 3505 3347 3576 3063 3491 3070 3213 2962 3090 2975 2866 2363 3020 2468 1724 1976 1732 1313 1376 1732 1104 924 711 797 858 757 603 788 457 299 311 4 316 365 374 771 790 790 345 880 1125 1247 1697 1995 2125 2376 2545 2225 2703 2396 3790 4086 5072 4393 4148 3311 3185 3435 3455 3553 3650 3718 3759 4012 4069 4049 3934 3755 3717 3767 3908 3957 3908 3799 3702 3596 3512 3464 3410
2698 2752 3006 2899 3570 3927 3582 3426 3964 3516 3381 2841 2871 2440 2580 3208 1984 2799 1726 2771 3055 1793 1400 1545 1488 1226 1388 1300 2256 1627 1498 973 793 884 985 215 69 93 396 328 176 510 568 399 1048 474 324 1213 1217 2176 2331 2819 2590 2563 2433 2250 2603 2834 4246 5718 5288 4130 3912 4057 3643 3439 3346 3429 3421 3418 3569 3716 3803 3854 3878 3875 3886 3957 3933 3796 3690 3618 3543 3461 3444
2704 2948 3367 3396 3529 3587 3582 3899 3374 3647 3257 2987 2246 2563 1438 2517 2305 2884 2828 3327 2909 3477 2576 1609 1832 1548 1309 1240 1389 1596 1416 1803 943 724 797 717 782 324 254 216 252 341 529 854 478 789 470 864 1039 1977 2095 1707 1869 2300 1662 2164 1752 1577 2049 4214 4047 4396 3871 3479 3450 3006 2776 2891 3002 3182 3422 3589 3766 3867 3853 3790 3821 3879 3945 3931 3820 3746 3718 3758 3744
2536 3189 3658 3825 3964 3343 3996 3632 3610 3088 2854 2802 2755 2418 2958 3058 3268 3837 4071 3316 3818 3416 2694 2051 2183 3069 1971 1604 1249 1599 1256 1209 1265 1058 726 781 644 360 242 378 401 426 516 373 561 668 717 878 643 585 1144 1300 1330 1870 1638 1493 2148 2842 3630 3998 3136 3292 3228 2693 2534 2569 2668 2746 3141 3360 3429 3481 3550 3569 3606 3591 3638 3678 3740 3690 3642 3592 3382 3392 3390
3326 2698 3748 3367 3274 3868 3253 4345 3278 3363 2603 2783 2464 2702 2870 3551 3288 3991 3366 3534 3607 3298 3441 3572 2209 2045 1265 1972 1740 1197 1047 1054 350 1143 1362 736 386 495 341 431 258 327 446 776 455 733 845 586 755 908 886 1369 1507 1402 1955 1879 2773 3000 3691 2924 2298 2634 2539 2406 2224 2423 2883 3131 3091 3094 3162 3231 3251 3377 3487 3454 3390 3284 3168 3080 3044 3091 3136 3198 3149
3251 3489 2857 3938 3101 4073 3543 3341 3461 2972 2172 2111 2615 2970 3653 3266 3512 3384 3449 3420 3959 3532 2715 3298 2661 2781 1586 2931 2358 2144 1711 970 699 962 624 956 576 320 254 395 667 419 652 589 633 708 942 778 1163 1084 1348 1546 1734 2073 2374 2936 2957 2115 2078 1573 2140 2206 2455 2504 2662 2899 3018 3119 3183 3206 3226 3332 3450 3414 3182 3078 2972 2916 2918 3036 3104 3144 3111 2985 2805
2284 2463 3224 2793 3354 3570 3005 3142 2951 3084 2605 2706 3056 2590 2536 2704 3082 4021 3172 4376 3174 3925 3320 3524 2979 3102 2485 2368 2327 1708 1804 1372 1335 1426 1075 459 1068 765 479 283 556 379 620 676 789 648 479 1087 1328 1189 1710 1735 1982 2176 2732 2916 1947 2300 2015 1904 2388 2625 2677 2947 3028 3095 3142 3173 3228 3300 3441 3396 2993 2992 2763 2657 2719 2867 3000 2967 2936 2963 2877 2731 2428
2517 2301 1846 2210 2992 2950 3139 2901 2821 3105 2571 3002 2768 2109 2000 2164 2572 2741 3855 2715 4510 4522 3556 3279 2912 2893 2025 1466 1446 1771 1664 1467 1455 1068 1040 1679 1220 992 636 436 380 728 455 648 790 938 1064 966 1336 1545 1682 2380 3114 3272 3375 4075 3134 1947 3484 2673 2566 2705 2922 2971 3031 3071 3122 3177 3336 3403 3050 2660 2697 2477 2216 2312 2569 2739 2752 2641 2661 2583 2337 1847 1582
2734 2788 1927 2275 2980 3058 2979 3463 3429 3489 3543 3006 3502 3290 2878 2364 2982 2449 2860 3234 3176 3667 3557 3182 2669 2943 1675 2094 1846 1494 1703 1688 1102 959 1194 1692 1541 1158 1209 651 104 466 473 693 792 677 968 1286 1664 1574 2144 2843 3085 3487 2822 3266 3781 2783 2360 3225 3117 3725 2974 2869 2958 3064 3138 3306 3255 2825 2496 2436 2437 2311 2004 2230 2401 2608 2322 2110 1995 1709 1475 1288 1178
2608 2769 2531 2346 2734 2730 3068 3418 4291 4128 3909 4566 4215 3329 3636 2766 2948 2962 2842 2349 3813 3928 3688 3446 3303 3257 2700 2496 2035 1785 1837 1655 1647 960 1185 874 897 1081 1716 1524 577 724 549 785 833 775 687 1077 1442 1483 2333 2456 2618 3487 2898 2269 3847 2722 2694 3996 4460 4279 3817 2986 3015 3108 3232 3110 2728 2474 2479 2513 2352 2202 1929 2229 2522 2432 1608 1444 1155 1057 913 741 526
2256 2289 2719 2706 2588 2808 2792 2868 3646 4827 3522 3730 3670 4368 4503 3321 3692 2279 3041 3542 2865 3280 3088 2774 2797 2798 3022 2794 2556 2416 2042 2460 1938 1378 1385 1389 1348 1797 1846 1891 992 557 745 477 228 985 1325 1212 1525 1986 2625 3483 3307 4090 2974 2901 3157 2145 2663 6084 5035 3872 3972 3022 3063 3154 3028 2760 2493 2447 2549 2485 1995 1888 1794 2145 2151 1751 1489 1150 688 533 578 621 389
1879 2524 2153 2678 3076 2988 2877 2596 3012 3498 3911 4045 3940 3076 3556 3809 4287 3485 3374 2610 3103 3804 3362 2492 2676 3016 3033 3286 3255 2400 2505 2176 2165 1901 1972 1936 2075 2448 1980 1954 2058 1220 1230 878 635 696 685 1236 1335 1405 2630 3496 2805 3621 4140 3464 3117 2435 2856 4215 4474 4784 4052 2994 3130 2958 2830 2651 2427 2485 2592 2366 1815 1701 1558 1615 1581 1456 1441 956 574 455 521 586 140
2031 1935 2614 2181 2424 2585 2751 2271 2554 3136 3213 3470 3558 3530 4286 3591 3136 3995 3394 1775 3654 3881 3426 2719 2869 2436 2059 2862 2879 2434 2828 2743 2705 2686 3050 3118 2402 2109 2184 1775 2268 2470 1983 1566 1604 1369 879 446 1360 2622 3086 3027 3989 3304 3344 3743 3468 2797 2454 3020 2905 5212 3450 3020 3020 2884 2812 2540 2398 2510 2599 2241 1779 1454 1324 1254 1248 1389 1356 895 561 429 461 531 337
1501 1563 2094 2406 2419 2436 2286 2268 2161 2363 2292 2402 2837 3202 4061 3938 3121 3338 3331 3418 3085 3895 3629 3090 2780 2361 2612 2652 2552 2785 2858 2835 2595 2574 3586 3494 2752 2319 2166 2011 2272 2580 2611 2322 2349 1916 1580 1411 551 3334 3773 2397 2938 3904 3305 2986 3781 4644 2951 2919 3074 4725 2779 3257 3631 3526 3041 2763 2317 2470 2584 2200 1710 1440 1282 1237 1271 1386 1321 906 678 479 394 491 466
1154 1385 1733 1959 2341 2444 2420 2143 2143 2220 2361 2319 2420 2662 2980 3225 3059 3266 2917 3112 3193 3634 3505 3280 3078 2916 3247 2899 3478 3020 3248 3373 3468 2884 3274 3299 2827 2679 2190 2141 2167 2224 2740 2705 2659 2415 1723 1399 1061 960 1955 2771 2072 1855 1961 2627 4247 3605 3432 3109 3628 4049 3086 3930 3902 3845 3624 3452 2703 2323 2587 2167 1701 1443 1295 1242 1274 1298 1367 1013 688 571 472 428 478
889 1409 1572 1791 1925 2023 2107 1866 1649 1720 2048 2006 2020 2268 2758 2850 2543 2161 2526 3196 3380 3315 3143 2921 1934 2875 3157 3075 3966 3622 3478 3523 3296 3041 3298 3636 3628 3014 2615 2513 2640 2837 3024 3120 2964 3027 2741 2000 1377 1760 1587 1494 2545 2476 3135 2954 5176 2827 3727 3251 3881 3575 4492 4543 4081 3853 3796 3556 2740 2320 2455 2278 1765 1560 1390 1333 1282 1329 1339 1254 807 641 521 449 432
565 942 1610 1781 1893 1802 1677 1609 1319 1376 1708 1658 1661 1758 2435 2661 2763 2540 2650 2575 2768 2782 2777 2839 2232 2611 3608 3545 3790 3859 3444 3600 3295 3088 2873 3246 3590 3370 2875 2847 2684 2791 2960 3190 3285 3018 2822 2284 2111 2406 1642 1966 1584 2721 3143 2820 2698 3716 2957 2815 3377 3192 3172 3908 4534 3797 3663 3481 2648 2255 2438 2306 2007 1761 1562 1406 1383 1344 1298 1316 1007 742 623 474 415
564 565 1368 1524 1615 1651 1632 1617 1492 1226 1498 1839 1570 1530 1867 2354 2579 2280 2214 2590 3142 3135 2815 2701 2270 2633 2972 2980 2995 2913 3037 2793 2548 2268 2198 2088 2256 2646 2835 2340 2594 2548 2587 2771 3246 3238 3007 2757 2487 2315 2264 2098 2594 2359 2893 3109 2512 3056 3035 3176 2762 2858 2642 2657 4364 3869 3696 3365 2977 2650 2464 2421 2239 2090 1815 1634 1480 1375 1348 1268 1238 844 728 592 468
695 685 625 1013 1158 1584 1668 1680 1637 1516 1648 1871 2020 1708 1668 1958 2416 2314 1830 1966 2225 2413 2380 2443 2348 2434 2314 2406 2563 2424 2142 2187 2376 2153 1792 1331 1482 1907 2001 2184 2295 2385 2291 2760 3269 3412 3247 2840 2536 2323 2236 2254 2617 2518 2841 3026 3501 3484 3610 3463 3197 2192 2348 2281 2524 4237 3623 3262 3154 2581 2531 2473 2415 2360 2129 1956 1733 1538 1433 1345 1265 1119 722 690 594
195 707 646 673 832 1364 1693 1609 1692 1789 1781 1884 2182 1773 1706 1840 2073 2508 2238 2013 1926 2006 1993 1877 1926 1964 1944 2213 2104 1775 1729 1758 1986 2112 1982 1815 1624 1439 1538 1816 2408 2674 2625 2493 3161 3760 3542 3153 3332 2694 2397 2452 2903 3028 2970 3104 3304 3274 3441 3406 3043 2807 2584 2758 2195 3363 3724 3350 2772 2647 2452 2480 2536 2497 2262 2059 2027 1802 1521 1392 1302 1220 882 642 572
19 228 626 715 900 1292 1444 1824 1766 1882 2122 2161 2156 1874 1672 1739 2060 2131 2158 2221 2072 2149 2032 2011 1804 1862 1956 1928 1821 1766 1782 1827 1872 1893 1750 1794 1672 1424 1442 1545 1808 1950 2233 2420 2886 3309 3812 3871 3882 3798 3508 3378 3544 3749 3500 2989 2865 3140 3461 4054 4189 3941 3397 2933 2472 3989 3363 2684 2852 2661 2528 2566 2550 2521 2370 2047 1897 1867 1708 1495 1346 1210 1093 789 667
88 3 224 533 536 1047 1473 1671 1852 1765 1998 2147 2200 2104 1608 1531 1615 1814 1807 1865 1887 2093 2147 2017 1966 2018 1853 2072 1897 1803 1834 1814 1698 1354 1587 1566 1629 1664 1638 1645 1509 1665 2080 2399 2893 3208 3241 3603 3907 3791 3650 3341 3395 3714 3610 3736 3683 3302 2848 2667 2693 3248 4182 4551 3848 2746 3200 2637 2898 2824 2752 2608 2508 2466 2396 2087 1646 1526 1704 1666 1389 1227 1178 967 713
249 33 10 330 558 653 1158 1579 1578 1710 1792 1860 2218 2270 2137 1725 1369 1619 1504 1458 1633 1665 1704 1627 1396 1472 1662 1766 1860 1878 1932 1832 1768 1608 1589 1740 1795 1744 1817 2023 2012 1876 1926 2217 2469 2655 2960 3141 3246 3136 3165 3103 2897 3194 3321 3504 3652 3829 3322 2689 2350 2306 3066 3824 4260 3973 2478 2553 2910 2823 2630 2648 2598 2475 2293 1991 1782 1665 1600 1591 1393 1255 1268 1136 789
199 58 8 9 333 656 820 1139 1353 1332 1573 1860 2143 2302 2396 2136 1530 1340 1526 1473 1259 1368 1162 1163 1137 725 673 845 817 888 1352 1762 1928 1939 1859 1400 1634 1853 1691 1760 1994 2163 2129 1798 1869 2054 2625 2520 2499 2440 2363 3273 3085 2506 2583 2988 3191 3237 3442 3614 3753 3865 3741 3614 3302 3378 3374 3796 2943 2424 2442 2585 2510 2444 2260 2097 1852 1660 1499 1402 1285 1324 1396 1278 865
186 104 4 0 46 285 561 923 1187 952 687 1262 1695 2089 2239 2346 2055 1242 1245 1684 1606 940 804 783 861 781 437 306 276 242 665 2485 2046 2558 2006 3714 2799 1887 2053 2116 2368 2574 2694 2570 2326 2424 2407 2435 2729 2592 2182 2474 2383 2538 1943 2240 2762 2976 2660 1996 2446 2393 2162 2081 3490 3146 3483 3404 3303 1948 2742 2570 2456 2367 2248 2251 1972 1697 1477 1253 976 1298 1486 1343 997
427 409 219 38 0 58 280 689 1016 852 468 281 1052 1140 1706 2069 2108 1314 1000 1452 1826 1328 915 764 572 518 468 318 131 572 1778 2017 2783 2942 2571 2440 2584 1885 2022 2042 2777 3221 3317 3250 3200 2743 2536 2548 2473 2171 1922 1535 1394 1943 1998 2097 2498 2926 2564 2506 2682 3263 3420 3333 3589 3210 3211 2900 2970 3395 3189 2646 2097 1874 2042 2185 2042 1842 1615 1146 609 1040 1510 1452 1081
1109 1346 852 360 104 17 94 331 697 561 328 95 197 270 1159 1494 1822 1865 1416 1218 1599 1627 1216 1296 1009 587 341 249 267 391 2226 2483 3447 2634 2587 2193 2299 2047 1754 1665 2450 3904 3543 3282 3233 2977 2851 2341 2264 2232 1743 1437 950 704 496 314 216 216 484 1039 1528 2094 2704 2841 2904 3271 3031 3246 3498 3825 3852 3291 2712 2909 2910 2618 1840 1794 1430 928 537 750 1282 1494 1151
1905 1003 923 1032 974 336 165 184 216 234 237 118 0 0 791 1242 1709 1729 1086 1090 909 965 1375 1311 1153 1025 861 471 230 149 263 660 820 3184 2672 2074 1949 1896 1643 1316 1050 959 1318 3273 3796 3381 3220 2884 2645 2366 1869 1487 1399 1257 1039 839 1096 1189 958 674 2026 2351 2813 2932 3051 2955 3618 3667 3959 3616 3385 3255 2908 2731 3269 3039 2567 1969 1622 1166 855 1001 1090 1298 1215
1385 1955 1992 1517 1507 1286 779 718 321 258 238 92 0 0 565 1077 1268 1372 387 191 388 484 652 1137 1372 1397 1233 912 748 331 65 1035 2240 884 3020 3578 1670 1583 1604 1460 1356 1216 1095 838 870 2645 3620 3725 3361 3125 2840 2798 2706 2168 1392 1653 2010 2037 2303 1747 2236 2605 3047 3049 2942 2568 3144 3627 3927 3350 3037 2688 2039 1714 2923 3393 3056 2128 1850 1669 1348 1114 927 999 1175
1915 1927 1881 1949 1779 2142 1765 1420 1409 799 585 195 0 0 0 838 1064 1218 1077 275 20 8 280 275 474 901 1582 1762 1492 1220 1058 819 1002 959 1651 2281 4030 3619 2444 2214 2390 2155 1286 1028 982 897 1010 2040 2578 2590 2808 3082 3576 3644 3588 3343 3145 3537 3551 2965 2682 2131 2459 2900 2838 3332 3194 2794 2624 2233 2751 2170 1826 1498 1280 1812 1806 2161 2082 1790 1402 1028 746 717 988
2070 2238 2123 2172 2122 2138 1978 1948 1836 1411 891 474 106 0 0 0 631 806 1418 940 524 232 61 205 586 382 1178 1356 1891 1935 2077 1830 1184 960 1092 1873 2698 3065 3919 4000 3225 2560 2602 2280 1766 1288 1379 1317 1628 2065 2393 2595 3043 3164 3534 3985 3516 3853 3487 3403 3036 2772 3140 3236 3314 3276 2904 2406 2458 2656 2865 2451 1928 1348 1440 1023 2284 2009 1657 1350 1203 979 499 443 792
1867 2023 2427 2206 2146 2136 2218 2197 2067 1963 1521 904 862 757 576 518 501 670 1500 1627 1260 1040 896 677 484 854 758 867 1520 2066 2253 2676 2214 1217 1123 1599 1932 2684 2799 2841 3046 3198 2968 2477 1758 1386 1026 948 1335 1242 1211 1196 1192 1916 2359 2544 3244 4431 4266 4018 3549 3838 3927 3682 3148 2355 2016 1313 1224 2094 2269 2391 2217 1275 1071 1100 1598 1919 1449 1225 1131 1010 743 556 506
1881 1796 1982 2020 2067 1962 2113 2272 2222 2113 1971 1663 1115 987 913 908 803 799 1405 1508 1581 1540 1471 1522 1438 1088 813 1091 2114 1255 1418 2287 2220 1798 1337 1204 1905 1905 2581 2631 2323 1844 1534 1578 2092 1687 1202 784 744 1068 1093 1059 1078 1089 1073 1188 2479 3600 4176 3385 2938 3421 3755 3413 2577 1880 1748 1010 812 804 737 1889 2243 1582 1339 1227 1274 1652 1341 1189 1161 953 826 718 521
2260 1890 1810 1936 2122 2236 2117 2031 1848 2226 2114 1917 1552 1328 1091 929 792 1105 1668 1618 1563 1632 1668 1761 1724 1655 1568 1344 1880 1710 1741 2168 1754 1815 1829 1503 2452 1837 1871 1937 2088 1953 1947 1344 702 1621 1556 1532 1178 968 1113 1227 1288 1232 1176 1269 1490 2001 3452 3395 2955 2840 3058 3082 2384 1771 1235 696 639 548 1104 692 850 1136 1358 1390 1321 1500 1324 1051 946 914 889 780 736
2504 2416 2076 2089 2004 2028 1960 2016 1906 1928 2108 2030 1744 1629 1476 1271 1093 1241 1620 1588 1553 1612 1646 1846 1921 1930 1894 1770 1520 1910 1812 2286 2118 1904 1728 1866 2423 2210 2082 1979 1761 1672 1363 1048 830 624 1173 1770 1830 1694 1464 1640 1525 2040 2593 1653 1688 1727 3325 3562 3103 2705 2234 2185 2385 2533 2130 1627 1058 1736 1868 1094 670 1065 1255 1136 1261 1320 1557 1275 1223 1125 986 894 774
Wind_Speed
14 12 11 11 10 11 11 8 12 10 15 12 17 17 17 18 23 14 14 17 16 16 17 15 16 15 15 15 15 16 16 17 17 16 15 15 15 14 14 14 14 13 14 14 15 15 15 14 13 12 10 10 9 10 12 13 12 12 12 11 11 11 10 10 11 11 11 12 13 13 14 15 15 16 17 17 18 19 19 20 20 21 23 23 25
12 13 13 13 12 12 10 9 10 12 11 14 10 18 17 16 14 12 11 16 16 16 17 17 15 16 16 15 16 15 17 17 17 16 15 14 14 14 16 16 15 15 15 16 15 15 13 13 12 10 10 10 11 12 13 13 13 13 13 12 12 12 11 12 12 12 13 12 14 15 15 17 17 18 19 20 20 21 22 22 23 24 25 27 26
12 13 14 14 13 13 9 8 8 8 10 9 9 9 9 14 13 10 10 12 14 15 16 16 16 16 16 16 16 16 16 16 16 16 15 14 13 14 15 17 17 17 17 16 15 13 11 9 9 9 9 10 12 13 12 12 13 14 13 13 13 13 13 14 13 13 14 13 16 17 18 18 20 20 21 21 22 23 24 24 25 25 27 27 28
11 12 13 14 12 15 11 9 7 6 9 8 8 6 6 8 9 10 8 11 12 14 15 16 17 17 17 16 16 16 16 16 14 12 12 13 13 13 14 16 18 18 17 16 14 12 10 9 9 11 10 12 13 12 13 14 15 15 15 14 14 14 15 14 15 15 15 16 18 19 19 21 21 22 22 23 24 25 25 25 26 26 27 28 28
11 11 12 12 11 12 11 10 8 7 11 8 6 10 15 12 10 11 9 9 10 12 13 15 16 16 16 14 15 14 13 12 13 13 11 12 13 12 12 13 15 18 17 15 13 11 10 11 11 11 13 13 13 13 14 15 16 16 15 15 14 15 15 15 15 16 17 19 20 20 22 22 23 23 25 25 26 26 26 26 27 27 28 28 29
11 12 11 10 10 9 10 11 10 9 8 11 9 10 10 11 14 13 10 11 10 10 11 13 14 14 14 13 13 12 12 11 11 11 11 9 9 10 10 10 13 13 13 16 14 13 14 14 14 14 14 15 15 16 17 18 17 17 15 16 16 15 16 17 16 17 19 21 21 22 23 24 24 25 27 27 27 27 27 28 28 29 29 30 31
10 12 10 10 8 9 9 9 10 11 10 10 11 9 14 8 8 17 10 11 10 11 10 12 12 12 12 12 11 10 10 9 9 9 8 9 9 8 9 10 10 11 11 12 15 17 17 17 17 17 17 16 18 19 19 18 18 16 16 16 17 17 17 18 18 18 21 22 23 24 24 25 27 28 28 28 29 29 30 31 31 31 32 33 33
9 12 11 8 8 7 7 8 9 10 10 12 12 8 9 9 7 13 13 8 9 9 10 9 10 9 10 10 9 9 8 8 8 7 7 9 7 8 8 9 9 8 11 11 12 15 20 20 19 19 18 19 20 20 20 19 17 17 17 18 17 18 19 19 20 21 22 23 24 25 26 28 29 29 30 30 30 31 32 33 34 34 34 35 36
8 10 10 8 6 6 6 6 8 7 8 15 9 11 8 7 10 6 12 12 7 7 7 9 9 9 8 8 8 9 7 7 6 6 7 7 10 8 8 7 8 10 12 10 12 12 19 19 20 20 21 21 22 22 21 20 18 18 18 18 18 19 20 20 22 23 24 24 25 27 29 30 30 30 31 31 32 34 35 35 36 36 37 37 37
6 9 11 7 7 6 5 6 7 7 9 9 9 8 8 8 7 9 9 12 8 6 6 8 9 9 9 6 8 7 6 6 5 6 6 7 7 7 7 9 11 11 9 7 7 12 13 18 20 20 21 22 22 21 21 19 19 18 19 19 20 20 21 22 24 25 25 25 27 29 31 32 31 31 32 33 34 36 36 37 37 38 38 39 39
5 6 7 6 5 4 5 7 6 7 8 8 6 6 7 7 6 6 9 8 8 7 7 7 8 7 8 6 7 8 6 6 7 6 8 5 6 9 7 10 6 8 10 12 10 8 11 13 16 16 17 22 21 20 19 19 19 19 20 21 22 22 23 24 25 26 26 28 30 32 32 32 32 32 33 34 35 36 37 38 38 39 39 39 39
4 5 7 5 4 5 4 7 6 7 7 7 5 5 5 5 5 5 6 6 6 7 5 6 6 7 8 7 6 6 6 6 7 6 6 5 8 12 8 7 8 8 9 9 9 7 9 11 14 14 12 17 20 19 19 18 18 19 20 21 23 23 24 25 27 27 28 30 32 33 32 32 32 33 33 34 35 36 37 38 39 39 40 40 40
4 4 5 5 5 4 5 6 5 5 6 6 5 5 6 5 5 7 5 6 5 6 3 7 5 3 7 5 5 6 4 9 9 6 6 4 7 8 8 6 7 9 9 7 11 9 9 13 15 13 12 11 14 17 17 18 19 19 21 22 23 24 25 27 27 28 30 32 33 32 31 31 32 33 33 34 35 35 36 38 39 39 40 40 40
2 3 3 4 4 4 4 5 7 5 7 6 5 5 5 6 5 5 7 5 5 5 5 6 5 4 4 3 3 4 5 6 10 5 7 5 4 6 11 7 8 9 7 9 10 9 10 12 14 10 10 12 10 11 13 15 17 20 21 22 23 24 26 28 29 30 31 32 32 32 31 31 32 32 32 33 34 35 35 36 38 39 40 40 40
1 1 3 3 3 5 4 4 5 4 5 5 4 4 5 4 5 5 4 4 4 3 3 9 4 3 5 3 2 2 5 7 7 5 6 5 6 6 9 4 8 10 10 10 10 9 8 8 8 10 9 9 10 9 11 12 10 17 20 21 22 25 27 28 29 30 31 31 30 29 30 30 31 32 32 33 33 34 34 35 36 37 37 38 39
1 0 2 3 4 3 5 5 4 5 4 4 4 3 3 5 4 3 4 2 2 1 2 5 7 2 3 2 0 3 3 4 4 2 3 6 7 1 7 4 6 8 11 10 5 6 7 8 7 8 9 8 10 10 12 9 8 15 18 19 22 24 26 28 29 30 30 30 29 28 28 28 28 29 31 32 33 33 33 33 34 35 36 37 38
2 2 1 2 3 5 6 5 5 4 4 3 3 1 1 1 3 3 3 3 4 1 3 2 4 7 4 6 3 2 4 3 2 10 10 5 4 nan 11 6 4 10 11 7 5 9 8 4 6 7 8 8 10 11 12 11 11 12 15 20 22 23 24 26 28 28 27 27 27 27 27 27 27 28 30 30 30 30 29 30 31 33 34 35 36
1 1 0 1 2 4 5 5 5 6 5 6 6 6 3 0 1 3 2 2 5 5 0 5 3 3 4 6 9 5 7 9 9 5 13 6 nan nan 7 5 4 6 7 5 6 5 6 4 6 7 8 10 10 12 11 11 10 12 13 13 21 21 21 22 25 26 26 26 25 26 26 25 25 27 27 27 27 27 26 27 28 29 31 32 33
2 2 1 1 1 2 3 4 5 5 6 6 5 2 5 3 3 1 2 3 3 4 5 3 4 5 4 3 5 5 4 5 6 7 7 12 15 3 5 4 2 3 5 5 3 5 7 6 7 7 6 10 9 10 11 10 8 11 10 7 12 15 17 20 22 23 24 23 23 23 23 23 23 24 24 24 24 23 23 24 24 25 27 28 29
3 1 2 1 0 1 3 4 4 4 4 4 4 11 7 7 4 3 3 1 2 4 6 10 3 5 6 6 3 7 7 7 4 6 7 8 10 8 3 4 5 6 5 3 4 4 4 9 5 8 7 7 9 9 12 9 12 12 13 8 11 13 15 18 19 20 21 21 20 20 21 21 21 20 20 20 20 20 19 20 20 21 22 23 24
2 4 2 2 1 1 1 2 2 3 3 2 3 4 3 4 4 2 1 1 2 1 3 5 7 5 4 8 8 5 6 4 5 8 8 8 5 9 11 10 6 9 11 7 3 2 4 5 10 8 6 6 8 9 11 11 9 11 3 7 10 12 14 16 16 17 18 17 17 17 18 18 17 17 17 17 16 16 16 16 16 17 17 18 19
1 3 3 2 2 1 1 1 2 1 4 3 2 3 1 2 2 1 1 1 0 1 3 4 3 10 4 7 8 9 8 7 6 6 7 10 9 5 4 5 8 7 6 7 7 7 5 3 7 7 5 5 7 7 9 10 11 10 5 7 9 11 13 13 13 14 13 13 14 15 15 15 15 14 14 13 12 12 12 12 12 12 12 13 14
1 2 3 4 3 2 2 2 2 2 4 2 1 3 2 2 1 2 1 2 0 2 4 4 5 7 7 6 7 6 7 7 9 11 7 7 11 12 5 7 7 3 9 10 11 4 8 10 2 5 6 6 9 8 9 8 9 9 12 12 10 11 10 10 10 10 10 11 12 12 12 12 12 11 10 10 9 8 7 8 9 9 10 11 12
1 2 3 4 4 3 2 3 2 1 0 3 2 2 1 1 1 1 0 2 3 3 5 4 5 4 8 5 7 8 5 8 6 6 11 10 10 10 11 8 7 5 5 4 11 7 6 6 6 4 5 6 8 10 8 8 6 9 14 9 9 7 6 8 7 7 7 8 8 9 9 10 9 8 7 7 6 5 5 6 7 8 8 9 9
3 1 2 4 4 3 3 2 2 1 1 2 3 2 4 3 0 1 3 0 3 3 3 4 4 5 6 7 8 9 7 8 9 7 6 7 10 10 13 10 5 5 7 6 5 2 6 6 6 5 5 7 6 10 12 7 6 5 14 7 7 6 5 4 4 3 4 4 5 6 7 7 6 6 5 6 5 6 7 7 7 8 8 9 9
2 2 2 2 3 3 3 3 2 2 1 1 2 3 3 2 2 1 6 2 1 1 4 5 5 4 7 8 7 8 8 7 7 8 7 5 7 7 8 11 10 5 4 4 10 7 5 5 4 6 8 9 9 9 11 11 2 4 10 9 5 3 4 1 1 1 0 1 3 3 5 4 3 3 4 5 6 8 10 10 10 9 9 8 9
4 3 3 2 3 4 3 4 4 3 3 2 3 2 3 4 3 3 6 3 3 3 3 3 3 3 5 7 10 10 9 9 9 8 9 9 8 8 7 7 8 7 2 5 4 12 4 5 6 4 7 8 10 7 9 12 6 5 9 9 3 4 6 6 5 5 4 4 2 1 1 1 1 3 4 6 9 11 13 13 11 9 9 9 9
5 4 2 2 2 2 3 4 4 5 4 3 3 2 4 4 3 2 5 2 2 3 4 3 3 2 4 6 8 10 8 9 10 8 8 8 8 8 5 6 7 6 7 5 3 4 10 7 6 8 7 7 10 8 3 12 4 8 7 5 4 6 8 9 10 9 10 9 7 4 3 3 2 3 5 7 10 13 15 13 11 9 9 9 9
6 5 4 3 3 1 2 3 5 4 4 3 3 2 3 2 3 3 3 3 5 3 3 3 2 1 2 1 5 7 9 8 10 10 8 10 9 7 8 7 7 8 6 7 8 7 4 12 6 7 7 6 6 9 6 8 4 5 7 4 3 7 10 13 13 12 14 14 13 8 7 5 5 5 7 8 10 14 15 13 10 9 9 9 9
8 7 6 5 3 2 1 2 4 4 3 3 2 2 3 2 2 3 2 2 2 3 5 3 1 1 4 4 3 5 6 7 5 8 7 5 6 6 5 5 6 8 8 7 7 8 7 6 9 3 4 3 3 5 4 3 7 2 4 4 2 8 13 14 13 14 14 16 15 12 9 9 9 9 9 9 12 15 17 13 12 11 9 9 9
8 7 7 5 5 4 2 3 3 3 3 2 1 2 3 4 2 1 2 2 2 1 5 4 2 1 2 3 5 6 8 8 10 7 5 4 5 6 6 5 5 6 6 7 7 5 8 8 8 7 5 4 4 5 3 1 9 4 2 3 3 14 14 15 14 14 14 16 16 14 12 10 11 11 11 12 14 17 17 16 15 14 11 10 9
8 7 6 5 5 4 4 3 3 4 3 2 1 1 2 4 3 2 4 4 4 5 6 2 3 1 3 0 2 4 5 6 6 7 5 5 5 4 4 4 4 5 5 5 6 7 6 6 7 7 1 4 7 3 3 2 10 11 5 3 4 9 13 13 16 15 15 17 18 17 15 13 11 13 13 14 16 18 19 19 18 17 15 12 10
9 8 7 6 6 5 4 5 3 3 3 2 1 1 0 1 3 4 2 4 4 3 3 3 4 6 3 2 1 0 3 4 5 5 5 3 2 3 3 3 4 4 4 4 6 5 5 5 6 5 6 5 1 5 2 2 2 8 6 4 5 3 4 12 17 19 16 18 19 19 18 14 13 14 14 15 17 18 20 21 20 19 17 14 12
10 9 9 7 6 6 5 5 4 3 5 3 1 1 1 0 1 1 2 1 1 1 0 2 3 3 2 3 3 3 2 1 2 2 2 2 1 1 1 2 3 3 3 3 4 5 5 3 3 3 4 1 2 5 3 1 1 4 3 5 5 4 6 6 16 17 21 20 21 22 20 18 16 15 15 17 17 19 20 21 20 19 18 16 13
13 11 10 9 8 7 6 7 6 5 5 5 3 1 2 1 0 1 1 2 3 2 2 2 2 2 2 2 3 3 3 2 2 2 2 2 2 2 1 1 0 1 0 1 2 2 3 2 1 2 2 3 1 2 2 1 3 4 4 4 5 6 7 5 5 17 21 22 23 22 23 22 19 18 17 18 18 20 20 20 20 20 19 17 14
13 13 11 10 10 10 8 8 8 6 6 5 4 3 2 1 1 1 1 2 1 1 1 1 3 3 2 2 2 2 3 2 2 2 2 2 1 2 2 3 2 2 2 2 3 1 2 2 2 2 3 5 4 2 2 4 3 4 5 6 6 5 8 8 3 15 19 23 24 25 25 24 22 21 20 19 20 20 19 19 19 20 19 16 15
nan 15 14 12 12 12 10 9 9 8 7 6 5 3 3 3 3 2 2 2 1 1 1 2 1 2 2 2 2 1 1 2 1 1 2 2 0 1 1 3 3 3 3 3 3 3 2 1 2 3 3 2 3 3 4 4 3 5 6 8 7 6 7 8 4 18 23 21 21 23 25 25 22 22 21 20 20 21 20 20 20 19 17 17 17
nan nan 15 14 13 12 12 11 10 9 9 8 7 4 3 3 4 3 3 3 3 3 3 2 2 2 2 2 2 2 1 1 1 1 0 1 0 0 1 2 3 3 3 3 3 2 2 2 2 2 2 1 2 3 3 4 4 4 6 7 7 8 9 9 8 13 17 17 18 18 20 21 22 22 21 21 20 21 21 20 20 19 19 18 17
15 nan nan 15 15 13 13 12 11 11 11 9 9 8 5 4 4 5 4 5 4 5 4 4 4 3 3 3 3 3 2 2 2 2 2 2 1 0 2 2 2 2 2 3 4 3 2 3 3 3 3 2 3 3 4 5 4 4 3 5 6 8 11 11 12 10 9 16 19 21 20 21 26 21 23 22 22 21 22 22 20 21 21 20 20
16 nan nan nan 16 15 14 13 12 13 13 12 11 10 9 7 6 6 6 5 5 6 6 6 5 4 3 3 3 4 4 4 3 1 1 2 3 2 3 3 3 3 2 2 3 3 4 3 4 3 3 3 4 4 4 5 6 6 5 3 4 7 8 11 10 10 12 11 10 18 19 24 24 21 23 21 20 21 22 22 22 22 22 21 21
18 17 nan nan nan 16 15 15 14 14 14 14 13 13 12 10 9 8 7 7 6 6 7 6 7 6 4 3 3 2 4 7 8 5 2 7 4 3 3 3 3 3 3 3 3 3 3 4 4 4 5 5 5 6 7 8 8 7 5 4 3 4 5 6 9 11 12 12 11 13 21 20 21 21 21 19 19 20 20 21 23 24 23 22 21
20 20 19 nan nan nan 17 16 15 15 15 15 17 16 16 15 13 11 10 10 8 8 9 8 6 6 6 5 3 2 5 6 9 11 9 7 5 3 4 4 4 4 4 4 4 5 5 5 5 6 7 7 8 9 10 10 9 9 9 9 7 5 5 5 7 9 11 12 11 12 12 13 14 20 19 19 21 23 20 20 21 24 24 24 22
21 22 19 17 17 nan nan 17 17 16 16 nan 21 22 20 16 15 15 13 13 12 10 9 10 9 8 7 6 5 4 8 13 12 13 12 11 11 8 5 4 4 5 6 6 7 7 7 6 7 8 8 7 7 6 6 5 6 6 6 8 7 7 6 5 6 9 13 14 15 13 14 14 13 11 15 13 20 20 20 23 30 31 28 25 24
23 20 19 18 18 16 17 17 17 17 17 16 nan nan 24 21 18 17 15 14 13 12 11 10 11 10 9 8 7 7 7 7 8 13 13 13 13 12 11 10 9 8 8 9 9 8 9 8 8 8 8 9 10 11 11 10 10 8 8 8 9 10 9 10 10 10 14 18 14 14 15 17 16 16 15 15 16 16 22 30 31 30 27 26 24
24 23 21 20 19 17 16 16 15 16 17 nan nan nan 27 26 22 18 16 15 14 13 13 12 12 12 12 11 10 9 nan 9 14 11 14 15 14 14 13 13 11 12 12 12 12 12 10 9 9 9 11 11 11 12 12 12 12 12 11 11 11 11 13 12 13 13 15 19 18 16 15 15 16 17 17 18 15 22 27 29 30 29 28 26 25
26 24 22 21 21 20 18 16 16 14 14 21 nan nan nan 28 26 23 17 15 nan nan 14 12 12 13 14 13 13 12 11 11 13 14 15 14 17 17 15 15 14 15 16 16 15 16 16 14 13 12 13 14 13 14 14 14 15 16 16 16 15 15 15 14 14 15 16 17 14 13 14 17 18 15 16 17 20 28 27 30 31 30 29 28 27
27 26 25 24 23 21 19 18 17 14 14 17 26 nan nan nan 28 26 20 17 16 15 nan 14 14 12 14 15 14 12 14 14 14 15 16 16 16 16 16 17 18 17 18 20 21 21 21 20 18 16 16 16 16 17 18 19 18 19 21 19 19 18 17 15 16 16 16 18 18 16 15 17 18 17 17 17 22 25 28 32 33 32 31 30 30
27 28 28 26 25 23 22 20 19 16 15 18 26 24 25 27 29 26 22 19 17 16 16 15 15 16 14 13 14 15 15 16 16 17 19 19 18 16 16 16 17 18 18 21 25 26 24 24 23 21 20 19 20 19 20 21 22 24 23 23 23 22 20 19 19 20 19 20 21 19 18 18 20 16 16 15 21 26 27 29 32 34 31 32 32
26 27 27 28 28 25 24 23 21 19 18 21 26 26 26 26 28 24 22 20 18 16 15 16 17 16 15 15 15 14 14 16 17 20 21 22 20 17 17 17 17 17 18 21 29 30 29 27 24 24 21 20 19 19 20 21 24 24 23 24 25 26 24 21 21 21 21 21 20 18 19 20 22 21 19 20 18 24 28 27 30 32 33 32 32
23 24 27 28 28 28 26 24 24 22 21 23 29 28 28 31 29 25 22 19 16 15 15 16 17 17 16 15 16 15 15 16 18 22 24 26 21 18 17 16 16 16 18 20 22 27 30 30 30 26 24 23 21 20 21 23 25 29 28 25 26 27 24 23 22 21 21 21 22 20 18 19 22 23 23 21 22 20 22 28 31 33 32 30 30
19 22 23 25 26 27 26 25 26 24 23 25 31 29 31 34 30 27 24 21 17 14 15 16 17 18 18 18 17 17 16 16 18 23 26 28 22 19 18 16 14 14 17 21 22 20 24 25 23 23 21 20 20 20 20 22 27 28 27 25 26 27 25 23 23 23 20 22 24 26 22 21 21 22 23 23 21 23 23 32 31 33 31 29 28
Wind_Direction
69 70 67 59 66 60 60 40 48 55 62 81 96 88 95 95 94 96 97 96 95 95 98 101 101 108 107 106 110 109 109 108 103 96 91 83 81 70 59 59 60 60 61 60 59 60 63 67 73 74 75 72 68 64 63 61 62 66 71 73 73 72 69 67 62 58 56 55 64 65 65 61 60 57 57 54 53 50 51 46 43 40 36 32 30
86 80 71 71 64 57 42 53 67 57 51 60 60 70 69 78 78 79 83 98 104 102 103 100 104 103 103 100 100 105 102 100 96 93 87 83 77 67 53 53 51 52 53 55 59 57 61 64 67 72 73 67 61 61 60 62 63 71 72 70 71 70 68 62 60 61 63 65 70 69 65 66 62 61 61 60 58 56 52 49 44 41 38 35 31
84 76 75 75 72 88 84 72 72 91 112 82 62 72 59 60 70 72 81 93 100 105 103 102 101 97 98 100 98 96 96 93 90 85 80 78 70 62 55 46 48 46 48 49 51 60 64 72 73 73 69 65 62 60 63 66 75 77 79 77 73 70 66 61 62 68 69 72 72 70 68 68 67 65 64 63 60 57 54 50 46 41 37 35 32
89 83 78 80 78 74 91 92 90 88 83 107 88 84 84 90 93 95 85 82 95 97 98 102 103 105 102 102 102 99 93 89 86 93 90 79 70 62 56 51 44 45 47 47 49 53 63 65 71 69 66 65 64 66 66 71 73 74 74 74 71 65 63 62 67 74 78 75 75 73 71 71 70 69 67 64 62 57 54 51 46 43 39 37 36
99 91 88 89 89 91 84 89 96 91 87 100 128 123 114 107 88 87 96 94 88 96 98 100 101 103 101 102 105 104 104 100 93 79 75 71 69 60 56 51 47 41 42 47 49 50 54 62 61 61 62 63 67 73 77 78 79 78 75 72 68 65 66 70 76 79 80 79 77 78 75 73 72 71 68 65 61 58 56 53 49 46 44 42 41
100 100 96 89 94 98 90 92 96 98 94 93 95 82 86 103 118 117 106 104 104 102 108 106 104 104 107 108 104 100 95 96 93 89 79 79 81 70 59 55 51 48 42 38 43 45 49 52 54 55 59 63 70 75 77 78 79 78 74 72 70 67 70 76 81 82 81 81 79 77 76 73 72 70 68 64 62 60 57 54 52 51 49 47 45
106 106 100 93 94 97 98 100 98 85 99 105 94 103 93 92 85 94 98 114 118 112 114 120 122 121 115 111 106 108 107 104 101 92 90 85 76 80 67 56 53 48 40 39 36 42 43 47 49 55 59 66 73 77 79 79 78 77 74 72 68 71 78 83 85 84 81 79 78 76 75 73 70 67 66 64 62 60 58 57 56 54 52 49 47
107 110 99 97 96 97 111 105 100 110 103 109 99 95 109 113 110 101 121 110 105 115 114 109 109 114 116 111 113 104 104 96 89 89 85 73 74 65 65 65 63 56 51 35 37 37 40 46 55 58 66 69 75 77 77 77 76 72 70 69 72 77 84 87 85 84 81 78 77 76 73 72 70 68 66 65 63 61 60 59 57 56 53 50 49
111 111 111 113 108 106 95 103 106 107 112 97 105 104 96 101 108 112 88 103 103 113 111 109 105 102 95 112 118 114 105 101 94 104 99 86 72 53 59 68 60 43 47 45 38 40 43 48 53 60 65 71 72 74 73 73 72 72 69 71 77 84 85 85 83 81 79 77 76 75 74 72 71 70 68 66 64 62 60 59 58 56 54 52 50
122 119 120 114 129 125 125 114 114 104 100 107 104 102 101 97 98 108 118 114 118 100 99 104 107 106 111 112 105 106 111 109 103 83 90 84 89 92 86 66 52 55 64 59 50 43 50 50 52 58 63 66 68 68 70 70 70 69 72 77 83 87 87 84 81 79 78 76 75 74 73 71 70 69 67 65 62 61 59 58 57 56 54 52 50
138 132 124 120 101 119 113 113 111 111 107 96 99 111 110 108 102 90 111 123 117 127 129 116 107 114 107 112 119 120 113 101 86 81 77 84 112 84 71 78 63 58 50 53 45 62 55 60 65 69 69 60 63 64 64 66 67 69 75 81 84 84 84 83 80 79 78 76 75 73 72 71 70 68 66 63 61 59 57 56 56 55 53 52 50
140 141 132 132 125 114 122 101 124 119 114 108 108 96 105 96 99 99 95 97 99 104 99 102 125 131 129 111 104 110 114 105 86 70 75 71 87 94 76 74 78 60 53 72 86 51 72 87 87 81 66 57 55 55 58 60 65 70 75 79 80 80 80 79 78 78 77 76 74 73 73 72 71 69 66 63 59 57 56 55 54 53 52 50 49
154 152 146 154 153 145 127 125 117 132 126 125 135 136 114 110 98 100 88 96 106 97 141 140 133 105 96 100 121 95 98 104 98 76 68 71 86 99 115 103 93 91 97 96 78 67 68 77 85 88 81 64 58 52 52 56 61 67 72 75 76 77 77 77 77 76 74 73 73 72 72 71 71 69 66 62 58 55 54 52 52 51 50 49 47
160 155 185 142 163 158 133 142 149 156 154 152 138 125 113 109 111 87 91 104 116 145 157 116 88 115 78 84 89 116 130 84 76 69 60 59 94 114 111 104 81 74 85 84 78 72 71 82 85 92 93 85 71 47 59 63 65 65 69 71 73 75 75 75 74 74 72 72 73 73 73 72 71 69 65 62 59 55 52 51 50 49 49 48 46
176 166 167 155 162 179 161 161 162 177 153 152 147 130 118 119 101 110 106 92 126 158 131 127 147 164 147 100 161 122 125 104 94 86 77 85 83 114 97 110 116 111 90 75 85 83 87 93 100 87 92 87 81 77 72 70 62 51 61 67 70 73 74 73 73 72 71 72 72 73 73 72 71 68 65 63 61 57 52 53 52 51 49 47 46
351 116 159 187 188 164 180 195 188 182 173 170 154 148 128 100 112 128 116 126 93 138 192 153 158 158 103 125 88 169 164 140 100 88 123 112 94 55 88 95 115 108 87 71 76 93 87 81 75 87 79 80 96 94 92 97 46 52 55 62 66 70 72 73 73 72 73 74 76 76 76 74 72 69 66 63 60 56 55 55 54 52 49 49 48
348 79 211 196 187 173 197 197 207 192 200 196 161 188 134 183 160 131 126 136 111 152 163 183 178 157 157 124 200 146 148 103 147 140 116 106 171 nan 133 116 130 105 108 154 115 91 68 67 89 81 82 87 91 96 96 89 70 70 62 59 62 66 68 71 73 75 77 78 80 80 78 76 73 71 70 67 65 62 59 56 54 53 50 48 46
339 35 200 261 188 193 193 195 202 202 183 196 213 222 193 271 274 112 176 189 155 114 81 155 201 171 158 161 153 170 147 160 137 133 122 145 nan nan 110 154 147 104 117 81 88 88 118 76 81 79 80 88 101 97 97 92 92 84 85 69 57 65 71 71 75 79 81 82 84 85 83 80 76 74 71 70 68 65 61 57 54 52 50 48 46
330 13 280 269 204 204 198 166 198 201 197 209 215 218 252 235 262 158 170 202 152 159 126 121 178 117 120 141 124 143 148 128 150 125 134 146 137 147 167 121 98 83 71 78 94 123 138 132 81 67 87 103 96 98 97 93 84 92 100 64 61 71 76 78 79 81 83 86 88 88 87 84 80 78 76 73 72 68 62 57 54 52 50 49 47
318 322 327 329 147 209 190 165 170 199 197 197 183 220 205 234 232 221 210 148 110 164 159 122 131 134 164 138 133 159 149 140 136 134 143 150 144 139 150 161 159 168 148 159 203 188 142 99 93 97 104 99 105 103 113 116 105 89 83 53 74 77 80 82 82 82 85 88 91 92 90 88 85 82 78 77 74 70 62 56 52 49 52 53 49
257 326 13 351 58 123 158 158 140 180 129 210 152 259 203 229 235 227 229 311 73 58 86 108 126 143 184 139 149 129 102 135 151 121 127 132 155 161 173 168 184 160 167 166 143 55 63 132 138 134 116 101 102 117 108 115 116 104 109 79 84 83 85 86 85 84 88 91 95 94 91 88 84 81 78 75 72 68 64 57 52 48 48 48 48
288 318 350 6 2 33 44 62 81 71 99 184 216 242 200 200 195 215 256 328 275 77 82 125 154 127 172 157 149 147 146 136 120 120 162 143 150 139 160 159 177 168 143 169 160 163 154 112 92 96 133 117 111 111 128 123 121 118 127 103 93 86 86 87 88 92 95 96 96 95 93 87 83 77 72 68 62 59 56 53 47 43 38 39 40
315 336 347 8 346 355 31 10 57 255 104 202 101 71 3 20 41 223 199 129 351 81 102 128 127 135 151 172 139 141 143 145 147 154 141 127 141 138 157 169 187 209 168 177 140 174 125 120 118 158 124 147 134 144 138 135 129 141 121 103 80 88 87 94 99 102 100 93 97 97 94 90 83 73 64 57 47 43 44 42 40 32 29 27 33
163 300 3 3 335 350 26 2 38 360 18 102 64 99 115 54 207 302 85 85 122 122 112 122 119 141 137 152 140 135 155 132 135 150 143 156 151 149 168 173 153 193 183 179 122 162 140 140 165 154 144 151 148 139 122 109 141 119 112 56 77 79 88 96 103 113 100 93 94 95 92 92 84 67 51 40 34 23 12 15 18 20 16 13 16
167 246 349 351 319 350 20 24 350 34 151 149 137 127 155 88 3 45 69 293 92 96 105 105 111 136 136 149 153 145 146 146 143 140 158 170 143 150 155 173 167 175 162 171 118 108 128 174 164 152 145 131 138 136 129 119 147 122 121 52 50 31 82 80 108 123 110 99 105 92 92 94 81 59 37 28 13 349 332 336 346 349 348 354 357
183 179 231 318 318 337 5 12 345 352 8 46 168 100 89 173 93 146 116 24 83 96 120 114 124 131 140 158 155 152 155 144 145 146 138 136 135 144 175 154 142 197 190 136 135 136 138 120 139 141 130 141 149 141 139 134 179 130 118 124 14 340 30 29 305 191 139 153 123 96 93 102 88 61 39 17 352 328 317 315 322 331 340 346 356
196 208 191 266 325 321 344 7 346 347 6 29 18 90 89 79 99 4 61 289 76 105 88 106 114 123 143 153 157 160 164 162 146 139 146 151 160 166 168 153 146 151 221 144 116 124 139 130 114 143 148 144 138 142 145 141 208 126 122 109 309 343 323 295 288 283 269 259 267 78 110 154 65 47 27 5 338 323 310 306 315 327 336 346 356
206 216 232 228 274 313 332 6 349 353 355 25 47 359 43 61 78 150 99 32 46 67 137 127 142 137 151 167 167 156 171 154 148 148 146 152 163 174 166 160 165 148 164 135 110 112 124 115 122 138 133 145 142 131 111 111 173 163 105 116 290 314 312 306 293 291 284 278 275 266 260 265 350 5 5 351 336 321 308 304 311 320 334 349 356
212 228 226 244 248 282 342 357 348 0 353 18 25 57 61 354 50 54 84 145 159 111 93 124 146 148 323 223 177 170 164 178 148 153 174 167 155 157 159 163 178 161 151 160 148 159 125 119 127 138 151 134 131 134 122 113 206 172 156 167 159 299 313 301 305 310 299 290 277 278 276 285 309 331 330 340 335 320 310 309 310 317 336 349 357
207 220 240 247 242 253 293 360 344 1 8 16 47 85 88 73 338 56 70 51 50 147 123 74 9 168 178 229 216 186 183 167 155 146 183 162 138 143 145 158 167 152 171 162 162 156 163 144 127 223 130 137 92 64 63 118 298 127 173 174 148 285 310 314 319 324 319 298 288 285 289 294 307 309 315 327 329 316 312 316 315 322 334 349 353
223 212 238 258 259 271 283 331 343 357 356 41 53 106 95 112 83 342 18 8 40 358 67 62 71 324 209 191 212 190 194 180 176 166 184 165 142 143 143 154 146 147 160 163 154 161 176 184 170 174 215 251 194 202 196 206 312 295 200 213 257 297 318 316 326 328 322 309 299 301 301 306 310 313 314 322 323 312 312 317 323 324 329 340 343
229 237 226 246 269 281 304 319 337 346 347 12 17 13 109 118 116 100 332 342 349 18 63 92 146 56 339 37 218 206 200 195 187 180 173 157 152 136 127 123 124 127 139 144 137 153 172 155 171 211 135 298 281 306 291 261 301 304 279 275 273 309 323 315 322 323 325 314 311 308 310 312 316 317 319 322 319 312 313 318 322 324 327 332 338
238 242 243 238 253 269 283 294 328 312 305 305 279 246 186 123 131 126 161 345 14 16 7 9 24 71 343 27 44 64 190 188 201 191 187 173 145 133 122 116 106 102 96 109 115 121 134 138 159 164 174 204 167 292 307 336 299 298 292 291 282 259 257 301 311 319 325 314 313 312 311 314 318 319 322 322 316 313 316 319 322 325 327 330 331
236 238 246 247 248 257 274 276 273 282 279 274 250 250 276 205 99 66 53 67 17 12 27 1 24 89 36 27 58 65 40 132 171 180 205 186 231 147 135 113 116 102 87 98 106 118 121 126 100 117 134 164 53 355 352 306 240 260 285 276 294 289 293 263 302 308 322 314 311 311 310 314 319 318 322 320 316 315 319 319 323 326 326 329 333
243 232 240 242 244 252 251 261 268 267 268 291 295 250 247 288 344 124 123 353 3 18 350 347 6 6 45 41 49 60 68 49 36 95 147 184 209 216 259 291 336 114 182 332 137 125 112 120 159 114 45 17 339 227 247 311 286 291 291 298 292 291 280 296 294 303 315 314 314 313 312 314 316 320 318 318 317 318 318 321 324 326 328 331 340
247 246 236 242 247 246 251 256 265 264 277 284 290 308 316 309 302 298 151 157 198 334 335 314 334 332 345 359 58 74 75 69 101 134 139 160 240 260 233 245 235 230 234 258 298 243 204 190 223 208 194 196 205 227 274 305 318 301 293 278 293 314 315 308 344 303 311 319 318 317 317 316 318 321 321 319 321 322 322 325 327 328 329 334 337
nan 251 251 239 239 248 251 257 261 266 271 277 281 294 303 301 308 295 285 285 260 216 234 247 262 289 310 329 323 344 86 107 94 84 95 77 200 213 289 285 287 296 291 295 304 317 302 274 244 244 226 224 221 217 231 227 251 285 303 312 304 302 301 303 299 298 310 318 315 319 318 320 318 321 322 323 325 325 326 327 330 329 330 330 337
nan nan 257 253 245 249 251 254 260 265 264 266 270 268 286 302 293 283 272 270 271 268 273 274 268 281 289 301 305 317 308 344 359 28 201 82 116 297 200 215 251 281 295 307 312 324 330 319 298 266 286 284 280 283 272 265 254 249 259 269 286 301 306 304 299 295 308 307 308 309 313 317 323 325 326 328 332 329 326 328 330 330 328 331 334
256 nan nan 261 256 255 257 256 261 264 268 269 261 266 259 244 266 277 274 275 271 270 279 282 279 281 299 302 310 324 332 336 359 344 324 320 299 260 280 285 289 271 294 304 315 339 340 342 342 341 337 343 325 321 315 321 319 300 262 265 273 277 288 292 299 298 295 310 314 314 316 323 319 327 328 333 333 332 327 327 330 329 329 333 336
259 nan nan nan 265 260 261 262 261 261 267 268 268 265 262 258 258 263 264 262 270 277 275 281 288 294 303 305 312 330 341 339 344 344 311 281 278 320 304 298 307 314 321 335 332 341 352 6 13 10 10 346 334 343 343 335 353 2 360 341 311 290 280 282 286 288 293 280 292 305 295 300 308 316 321 324 330 329 324 323 330 327 328 330 333
263 262 nan nan nan 270 266 264 264 263 266 268 266 268 266 264 255 259 268 275 272 263 267 277 286 288 271 266 289 319 309 316 337 324 309 242 253 287 295 294 300 317 332 341 349 348 359 20 23 16 18 10 5 3 15 8 17 27 13 5 333 293 287 294 296 298 296 297 292 288 303 304 306 309 312 315 318 326 324 328 318 323 321 325 330
260 260 259 nan nan nan 271 269 265 262 260 260 268 280 272 262 262 253 256 262 264 261 262 260 260 276 286 280 269 283 264 273 296 308 314 308 295 277 243 267 293 309 321 328 331 336 347 2 11 10 16 10 5 2 5 7 5 10 18 6 6 356 332 311 297 304 301 301 304 291 280 294 303 306 310 315 309 315 314 321 317 313 316 322 325
263 262 262 266 267 nan nan 274 274 265 260 nan 279 285 283 274 260 259 253 253 262 261 260 259 257 259 264 272 263 276 282 284 290 308 313 325 329 330 331 331 286 282 301 319 323 327 329 344 345 353 359 352 353 351 345 351 356 351 347 334 334 325 322 314 315 302 312 315 315 318 318 312 306 303 314 314 308 311 319 311 299 304 313 314 318
265 270 272 269 264 268 269 275 279 277 273 271 nan nan 289 287 276 263 259 257 258 264 266 264 264 264 262 261 263 261 278 294 296 299 310 323 325 329 335 336 343 346 324 308 305 312 324 329 336 338 337 333 329 332 338 339 330 321 315 315 317 316 319 322 316 319 304 312 323 330 333 325 327 328 319 322 320 326 303 304 307 308 311 310 316
263 266 267 273 275 272 271 271 276 282 281 nan nan nan 295 296 295 284 266 262 262 263 266 269 268 266 264 268 262 259 nan 276 291 299 293 301 313 329 329 332 334 333 335 344 335 322 311 317 328 332 331 328 333 329 328 323 316 322 313 314 313 315 317 316 317 316 316 313 322 331 336 327 323 329 334 325 327 299 299 309 311 311 310 313 318
261 265 271 271 270 270 272 273 272 275 281 285 nan nan nan 302 302 292 279 276 nan nan 264 267 269 275 276 272 271 269 266 261 263 276 283 289 290 295 301 302 306 320 330 339 340 341 333 326 328 332 329 325 327 319 316 314 317 318 317 318 316 317 315 317 316 317 313 312 319 320 325 324 325 334 337 335 321 303 306 310 314 313 315 316 319
262 262 264 266 266 268 271 271 270 275 281 287 293 nan nan nan 305 295 289 285 276 272 nan 271 267 267 268 276 281 281 275 272 274 278 279 284 287 288 295 303 307 310 312 317 319 318 318 323 331 336 333 329 327 326 318 315 316 313 313 314 311 307 303 303 310 313 314 315 325 322 327 319 316 325 328 327 319 314 304 311 317 317 319 318 318
254 257 258 259 264 267 267 268 267 267 268 284 288 293 297 298 301 286 288 290 286 280 277 275 274 272 274 275 272 277 278 277 281 290 286 283 285 290 293 294 296 301 306 313 316 317 318 319 323 329 330 333 330 325 317 313 311 311 309 309 308 304 305 309 312 307 308 309 316 321 323 317 309 315 310 312 314 311 312 315 321 321 321 319 319
249 253 255 257 256 260 264 266 266 263 263 271 284 288 289 291 283 278 284 286 286 288 286 283 280 280 281 281 281 278 281 280 283 289 290 289 285 290 289 290 290 293 298 300 313 321 322 326 328 333 335 333 329 325 317 310 308 300 300 307 311 307 310 314 311 307 307 304 305 312 319 317 313 313 315 316 315 316 317 320 314 321 323 321 321
245 246 250 253 256 259 262 265 267 266 265 270 281 285 287 287 284 276 274 277 281 282 283 284 280 278 280 293 288 283 282 280 285 290 293 289 288 292 289 288 291 297 298 295 289 302 324 326 333 335 334 333 331 326 315 308 305 301 307 313 310 307 313 314 312 309 306 304 302 298 299 306 305 309 313 313 312 314 320 312 311 312 319 319 322
247 243 244 248 253 256 260 264 266 267 264 268 279 284 288 289 286 274 273 269 268 270 272 274 276 273 273 276 289 284 281 281 285 285 291 289 288 292 292 290 298 304 298 290 294 295 296 304 305 311 313 314 309 303 307 320 311 305 305 310 309 310 313 313 312 309 311 311 307 306 304 302 302 307 305 305 310 308 314 302 308 309 315 316 316